15 daagse weersverwachting Liverpool (GB)

  • Overzicht
  • Per uur
  • 15 dagen
  • Extra
  • Vergelijk
  • Kaarten
  • Dagkaart
  • Meer »
  • Info
  • Statistieken
  • Directe link
    Temp 6h Neerslag Wind  
 06:58     19:12    Daglengte: 12:14 Morgen
01:00
12°
25.5 mm
11
07:00
10°
17.1 mm
10
13:00
12°
20.9 mm
11
19:00
12°
22.8 mm
10
 07:00     19:10    Daglengte: 12:10 Zaterdag 22 Sep
01:00
12°
 
8
07:00
11°
 
6
13:00
13°
 
5
19:00
11°
 
2
 07:01     19:07    Daglengte: 12:06 Zondag 23 Sep
01:00
10°
 
2
07:00
 
4
13:00
10°
45.6 mm
6
19:00
10°
70.7 mm
6
Locatie info
Region: England
Latitude: 53.4101°N
Longitude: -2.9784°E
30 masl
Postcode: L3 8
Temp/Neerslag /Baro Onweer/Dauwpunt
    Temp Baro 1h Neerslag Dauwpunt Wind UV Bewolking  
 06:56     19:15    Daglengte: 12:19 Vandaag
22:00
16°
991.4 hPa 19.6 mm
48%
14.1°
6
Windvlaag: 4.8 km/h
88%
23:00
16°
990.0 hPa 2.8 mm
82%
13.8°
6
Windvlaag: 5.6 km/h
82% warningclass
 06:58     19:12    Daglengte: 12:14 Morgen
00:00
14°
989.7 hPa 3.2 mm
82%
12.0°
7
Windvlaag: 6.8 km/h
48%
01:00
12°
991.0 hPa
82%
9.3°
11
Windvlaag: 7.4 km/h
91%
02:00
11°
993.4 hPa 1.8 mm
82%
6.7°
12
Windvlaag: -1.1 km/h
84%
03:00
10°
995.7 hPa 2.5 mm
82%
7.0°
12
Windvlaag: -1.2 km/h
89%
04:00
10°
997.0 hPa 2.7 mm
82%
7.0°
11
Windvlaag: -1.6 km/h
76%
05:00
10°
998.3 hPa 3.6 mm
82%
7.5°
11
Windvlaag: -0.2 km/h
89%
06:00
10°
999.4 hPa 3.4 mm
82%
7.0°
11
Windvlaag: -1.1 km/h
85%
07:00
10°
1000.4 hPa 3.1 mm
78%
6.9°
10
Windvlaag: 1.3 km/h
69%
08:00
10°
1001.4 hPa 3.4 mm
76%
6.9°
10
Windvlaag: 1.3 km/h
66%
09:00
10°
1002.3 hPa 3.2 mm
73%
6.4°
10
Windvlaag: 1.6 km/h
48% warningclass
10:00
11°
1003.1 hPa 3.8 mm
73%
5.4°
9
Windvlaag: 2.1 km/h
45%
11:00
11°
1003.4 hPa 3.8 mm
70%
5.6°
9
Windvlaag: 2.5 km/h
82%
12:00
12°
1003.7 hPa 3.1 mm
82%
6.4°
10
Windvlaag: 2.3 km/h
64%
13:00
12°
1004.0 hPa 3.6 mm
82%
7.1°
11
Windvlaag: 2.5 km/h
89%
14:00
12°
1004.9 hPa 3.5 mm
80%
7.5°
12
Windvlaag: 1.1 km/h
48%
15:00
13°
1006.0 hPa 4.0 mm
78%
8.4°
12
Windvlaag: 1 km/h
70%
16:00
13°
1007.4 hPa 4.0 mm
78%
8.4°
12
Windvlaag: 2.2 km/h
47%
17:00
13°
1008.6 hPa 3.9 mm
77%
8.7°
12
Windvlaag: 2 km/h
23%
18:00
13°
1009.7 hPa 3.8 mm
75%
8.8°
11
Windvlaag: 2 km/h
37%
19:00
12°
1010.8 hPa 3.7 mm
73%
8.8°
10
Windvlaag: 1.3 km/h
33%
20:00
12°
1012.0 hPa
73%
8.6°
9
Windvlaag: 0.8 km/h
20%
21:00
12°
1013.1 hPa
68%
7.8°
8
Windvlaag: 0.6 km/h
20%
22:00
12°
1013.6 hPa
18%
6.6°
8
Windvlaag: 0.3 km/h
6%
23:00
12°
1014.3 hPa
21%
5.8°
8
Windvlaag: -0.1 km/h
13%
 07:00     19:10    Daglengte: 12:10 Zaterdag 22 Sep
00:00
12°
1015.0 hPa
16%
5.5°
8
Windvlaag: -0.1 km/h
12%
01:00
12°
1015.4 hPa
17%
5.6°
8
Windvlaag: -0.1 km/h
43%
02:00
12°
1016.0 hPa
14%
5.7°
8
Windvlaag: 0.6 km/h
72%
03:00
12°
1016.4 hPa
16%
5.7°
7
Windvlaag: 0.6 km/h
81%
04:00
11°
1016.7 hPa
18%
5.7°
7
Windvlaag: 0.6 km/h
63%
05:00
11°
1016.8 hPa
21%
5.9°
6
Windvlaag: 0.6 km/h
79%
06:00
11°
1017.1 hPa
18%
6.0°
6
Windvlaag: 0.7 km/h
74%
07:00
11°
1017.5 hPa
25%
5.8°
6
Windvlaag: 0.7 km/h
75%
08:00
11°
1018.0 hPa
63%
6.0°
5
Windvlaag: 0.4 km/h
80%
09:00
12°
1018.3 hPa
32%
6.1°
6
Windvlaag: 0.7 km/h
88%
10:00
12°
1019.1 hPa
28%
6.2°
6
Windvlaag: 1 km/h
85%
11:00
12°
1019.4 hPa
23%
5.9°
6
Windvlaag: 1.3 km/h
86%
12:00
13°
1019.5 hPa
19%
5.4°
5
Windvlaag: 1.2 km/h
77%
13:00
13°
1019.6 hPa
16%
5.0°
5
Windvlaag: 1.2 km/h
67%
14:00
13°
1019.5 hPa
16%
5.5°
5
Windvlaag: 0.8 km/h
64%
15:00
13°
1019.1 hPa
15%
5.9°
4
Windvlaag: 0.2 km/h
68%
16:00
12°
1018.9 hPa
22%
6.8°
3
Windvlaag: -0.3 km/h
78%
17:00
12°
1018.3 hPa
21%
7.2°
3
Windvlaag: -0.6 km/h
78%
18:00
11°
1017.8 hPa
21%
8.0°
3
Windvlaag: -0.6 km/h
90%
19:00
11°
1017.6 hPa
21%
8.2°
2
Windvlaag: -0.6 km/h
94%
20:00
11°
1017.6 hPa
21%
7.9°
2
Windvlaag: -0.4 km/h
94%
21:00
10°
1017.7 hPa
21%
7.5°
2
Windvlaag: -0 km/h
94%
22:00
10°
1017.5 hPa
21%
7.8°
2
Windvlaag: 0.7 km/h
95%
23:00
10°
Voelt als: 8.8°
1017.1 hPa
21%
7.9°
2
Windvlaag: 0.8 km/h
95%
 07:01     19:07    Daglengte: 12:06 Zondag 23 Sep
00:00
10°
Voelt als: 8.7°
1016.8 hPa
21%
7.8°
2
Windvlaag: 0.7 km/h
89%
01:00
10°
Voelt als: 8.6°
1016.3 hPa
21%
7.6°
2
Windvlaag: 0.6 km/h
97%
02:00
10°
Voelt als: 8.5°
1015.8 hPa
24%
7.5°
2
Windvlaag: 0.4 km/h
98%
03:00
10°
Voelt als: 8.3°
1015.2 hPa
22%
7.3°
3
Windvlaag: 0.5 km/h
99%
04:00
10°
Voelt als: 8.3°
1014.8 hPa
35%
7.1°
3
Windvlaag: 0.3 km/h
100%
05:00
10°
Voelt als: 8.0°
1014.2 hPa
37%
7.5°
3
Windvlaag: -0.1 km/h
100%
06:00
Voelt als: 7.2°
1013.6 hPa
42%
7.8°
4
Windvlaag: 0.2 km/h
100%
07:00
Voelt als: 7.1°
1013.2 hPa
83%
8.0°
4
Windvlaag: 1 km/h
100%
08:00
Voelt als: 7.1°
1013.1 hPa
39%
8.2°
4
Windvlaag: 1.4 km/h
100%
09:00
Voelt als: 7.0°
1012.7 hPa 7.2 mm
72%
8.2°
5
Windvlaag: 1.8 km/h
100%
10:00
10°
Voelt als: 7.4°
1012.6 hPa 8.2 mm
86%
8.5°
5
Windvlaag: 1.8 km/h
100%
11:00
10°
Voelt als: 7.4°
1012.6 hPa 9.0 mm
36%
8.6°
5
Windvlaag: 1.2 km/h
100%
12:00
10°
1012.3 hPa 9.8 mm
30%
8.6°
6
Windvlaag: 0.5 km/h
100%
13:00
10°
1012.2 hPa 11.4 mm
73%
8.7°
6
Windvlaag: -0.1 km/h
99%
14:00
10°
Voelt als: 6.2°
1009.5 hPa 19.0 mm
27%
7.7°
8
Windvlaag: 1.4 km/h
99%
15:00
Voelt als: 5.2°
1012.4 hPa 17.6 mm
74%
6.7°
10
Windvlaag: 1 km/h
88%
16:00
10°
Voelt als: 6.0°
1014.6 hPa 17.6 mm
75%
6.7°
9
Windvlaag: 1.4 km/h
85%
17:00
10°
Voelt als: 6.5°
1016.6 hPa 16.6 mm
26%
6.7°
9
Windvlaag: 1.9 km/h
84%
18:00
10°
Voelt als: 6.8°
1018.5 hPa
29%
6.2°
7
Windvlaag: 1.5 km/h
84%
19:00
10°
1020.6 hPa
29%
5.6°
6
Windvlaag: 1.2 km/h
50%
20:00
10°
Voelt als: 6.5°
1021.2 hPa 48.6 mm
100%
5.0°
6
Windvlaag: 8.3 km/h
59%
21:00
10°
Voelt als: 6.7°
1022.8 hPa 48.6 mm
100%
4.7°
6
Windvlaag: 8.1 km/h
55%
Temp/Neerslag /Baro Onweer/Dauwpunt
    Temp Baro Neerslag Dauwpunt Wind Bewolking  
 06:56     19:15    Daglengte: 12:19 Vandaag
22:00
16°
991.4 hPa 19.6 mm 14.1°
6
88%
 06:58     19:12    Daglengte: 12:14 Morgen
01:00
12°
991.0 hPa 6.0 mm 9.3°
11
91%
04:00
10°
997.0 hPa 7.0 mm 7.0°
11
76%
07:00
10°
1000.4 hPa 10.1 mm 6.9°
10
69%
10:00
11°
1003.1 hPa 10.3 mm 5.4°
9
45%
13:00
12°
1004.0 hPa 10.6 mm 7.1°
11
89%
16:00
13°
1007.4 hPa 11.5 mm 8.4°
12
47%
19:00
12°
1010.8 hPa 11.3 mm 8.8°
10
33%
22:00
12°
1013.6 hPa   6.6°
8
6%
 07:00     19:10    Daglengte: 12:10 Zaterdag 22 Sep
01:00
12°
1015.4 hPa   5.6°
8
43%
04:00
11°
1016.7 hPa   5.7°
7
63%
07:00
11°
1017.5 hPa   5.8°
6
75%
10:00
12°
1019.1 hPa   6.2°
6
85%
13:00
13°
1019.6 hPa   5.0°
5
67%
16:00
12°
1018.9 hPa   6.8°
3
78%
19:00
11°
1017.6 hPa   8.2°
2
94%
22:00
10°
1017.5 hPa   7.8°
2
95%
 07:01     19:07    Daglengte: 12:06 Zondag 23 Sep
01:00
10°
Voelt als: 8.6°
1016.3 hPa   7.6°
2
97%
04:00
10°
Voelt als: 8.3°
1014.8 hPa   7.1°
3
100%
07:00
Voelt als: 7.1°
1013.2 hPa   8.0°
4
100%
10:00
10°
Voelt als: 7.4°
1012.6 hPa 15.4 mm 8.5°
5
100%
13:00
10°
1012.2 hPa 30.2 mm 8.7°
6
99%
16:00
10°
Voelt als: 6.0°
1014.6 hPa 54.1 mm 6.7°
9
85%
19:00
10°
1020.6 hPa 16.6 mm 5.6°
6
50%
22:00
10°
Voelt als: 6.9°
1024.5 hPa 145.7 mm 4.6°
6
50%
 07:03     19:05    Daglengte: 12:02 Maandag 24 Sep
01:00
10°
Voelt als: 7.3°
1028.9 hPa 145.7 mm 4.5°
4
38%
04:00
Voelt als: 6.8°
1032.6 hPa   5.1°
4
28%
07:00
Voelt als: 6.3°
1034.3 hPa   5.4°
4
21%
10:00
11°
1036.7 hPa   5.2°
5
56%
13:00
12°
1039.0 hPa   4.6°
5
90%
16:00
12°
1039.2 hPa   4.8°
4
54%
19:00
11°
1039.5 hPa   4.8°
3
18%
22:00
Voelt als: 8.4°
1040.4 hPa   4.9°
2
18%
 07:05     19:03    Daglengte: 11:58 Dinsdag 25 Sep
01:00
Voelt als: 7.4°
1041.2 hPa   4.8°
1
17%
04:00
Voelt als: 5.5°
1041.2 hPa   4.3°
2
44%
07:00
Voelt als: 3.5°
1041.3 hPa   3.7°
2
70%
10:00
Voelt als: 7.8°
1041.2 hPa   4.7°
3
79%
13:00
14°
1041.0 hPa   4.5°
4
88%
16:00
13°
1039.6 hPa   5.6°
2
61%
19:00
11°
1038.2 hPa   6.4°
1
33%
22:00
Voelt als: 8.5°
1038.1 hPa   5.4°
2
19%
 07:07     19:00    Daglengte: 11:53 Woensdag 26 Sep
01:00
Voelt als: 5.3°
1037.8 hPa   4.3°
2
4%
04:00
Voelt als: 4.8°
1037.1 hPa   4.1°
3
3%
07:00
Voelt als: 4.3°
1036.5 hPa   3.9°
3
1%
10:00
10°
1036.3 hPa   6.8°
2
2%
13:00
15°
1036.2 hPa   9.6°
1
4%
16:00
14°
1035.0 hPa   9.9°
1
2%
19:00
13°
1034.0 hPa   9.9°
0
0%
22:00
11°
1033.6 hPa   8.5°
1
1%
 07:09     18:58    Daglengte: 11:49 Donderdag 27 Sep
01:00
Voelt als: 7.9°
1033.2 hPa   7.0°
2
1%
04:00
10°
Voelt als: 8.1°
1032.0 hPa   7.2°
3
2%
07:00
10°
1030.9 hPa   7.3°
3
2%
10:00
12°
1030.9 hPa   9.3°
5
47%
13:00
14°
1031.0 hPa   11.4°
7
92%
16:00
13°
1031.3 hPa 0.2 mm 10.0°
7
57%
19:00
13°
1031.7 hPa 0.4 mm 8.6°
6
23%
 07:10     18:55    Daglengte: 11:45 Vrijdag 28 Sep
01:00
11°
1032.3 hPa   5.4°
6
92%
07:00
11°
1031.9 hPa   5.1°
6
91%
13:00
13°
1032.8 hPa   6.7°
6
86%
19:00
12°
1031.4 hPa   6.8°
5
58%
 07:12     18:53    Daglengte: 11:41 Zaterdag 29 Sep
01:00
11°
1030.5 hPa   7.1°
4
52%
07:00
11°
1028.2 hPa   7.1°
5
20%
13:00
13°
1027.5 hPa   9.4°
7
91%
19:00
13°
1025.6 hPa   10.2°
7
43%
 07:14     18:50    Daglengte: 11:36 Zondag 30 Sep
01:00
13°
1026.0 hPa 0.2 mm 9.3°
6
21%
07:00
12°
1027.4 hPa 0.6 mm 7.6°
6
85%
13:00
13°
1030.2 hPa   5.8°
6
67%
19:00
11°
1020.4 hPa 0.3 mm 6.4°
5
54%
 07:16     18:48    Daglengte: 11:32 Maandag 01 Okt
01:00
Voelt als: 6.7°
1020.3 hPa 0.2 mm 6.0°
5
56%
07:00
Voelt als: 5.9°
1019.9 hPa 0.7 mm 5.6°
5
61%
13:00
12°
1020.5 hPa 0.5 mm 6.1°
6
63%
19:00
Voelt als: 7.4°
1020.7 hPa 0.6 mm 5.3°
4
58%
 07:17     18:46    Daglengte: 11:29 Dinsdag 02 Okt
01:00
Voelt als: 5.7°
1020.9 hPa 0.3 mm 4.6°
3
46%
07:00
Voelt als: 5.1°
1020.0 hPa 0.3 mm 4.5°
3
46%
13:00
12°
1019.1 hPa 0.8 mm 6.9°
5
51%
19:00
10°
Voelt als: 7.1°
1018.8 hPa 0.8 mm 5.8°
6
59%
 07:19     18:43    Daglengte: 11:24 Woensdag 03 Okt
01:00
Voelt als: 5.2°
1019.7 hPa 0.3 mm 4.8°
5
47%
07:00
Voelt als: 4.5°
1019.6 hPa 0.5 mm 4.2°
5
53%
13:00
11°
1019.4 hPa 0.5 mm 5.7°
6
60%
19:00
10°
Voelt als: 7.1°
1018.3 hPa 0.8 mm 5.8°
5
55%
 07:21     18:41    Daglengte: 11:20 Donderdag 04 Okt
01:00
Voelt als: 5.6°
1018.6 hPa 0.7 mm 5.3°
4
50%
07:00
Voelt als: 5.5°
1018.2 hPa 0.3 mm 5.2°
4
60%
13:00
12°
1018.3 hPa 0.4 mm 6.2°
5
61%
19:00
10°
Voelt als: 7.8°
1017.3 hPa 0.6 mm 5.9°
3
64%
 07:23     18:38    Daglengte: 11:15 Vrijdag 05 Okt
01:00
Voelt als: 6.8°
1017.5 hPa 0.6 mm 5.8°
3
55%
07:00
Voelt als: 6.8°
1016.5 hPa 0.9 mm 5.7°
2
49%
13:00
12°
1016.2 hPa 1.2 mm 7.4°
3
52%
19:00
10°
Voelt als: 8.5°
1016.0 hPa 0.6 mm 6.3°
3
50%
  CAPE Lifted Index Hail Supercell Tornado SRH 3km CL BTM PRES CL TOP PRES Swiss DWD icon SMHI TS
 06:56     19:15    Daglengte: 12:19 Vandaag
22:00 329 J/kg -2.3 K 0 % 0 % 0 % 0 m²/s² 0 0 -1.37 61
23:00 463 J/kg -3.5 K 0 % 0 % 0 % 0 m²/s² 0 0 -2.06 61
 06:58     19:12    Daglengte: 12:14 Morgen
00:00 515 J/kg -2.0 K 0 % 0 % 0 % 0 m²/s² 0 0 5.44 61
01:00 46 J/kg 1.3 K 0 % 0 % 0 % 0 m²/s² 0 0 6.07 61
02:00 34 J/kg 5.7 K 0 % 0 % 0 % 0 m²/s² 0 0 6.81 61
03:00 56 J/kg 3.7 K 0 % 0 % 0 % 0 m²/s² 0 0 4.21 61
04:00 113 J/kg 0.9 K 0 % 0 % 0 % 0 m²/s² 0 0 1.29 61
05:00 300 J/kg -0.8 K 0 % 0 % 0 % 0 m²/s² 0 0 -0.29 80
06:00 455 J/kg -1.4 K 0 % 0 % 0 % 0 m²/s² 0 0 -0.8 80
07:00 529 J/kg -2.4 K 0 % 0 % 0 % 0 m²/s² 0 0 -1.65 80
08:00 534 J/kg -2.8 K 0 % 0 % 0 % 0 m²/s² 0 0 -1.21 80
09:00 371 J/kg -1.7 K 0 % 0 % 0 % 0 m²/s² 0 0 0.4 95
10:00 354 J/kg -1.5 K 0 % 0 % 0 % 0 m²/s² 0 0 1.08 80
11:00 368 J/kg -1.8 K 0 % 0 % 0 % 0 m²/s² 0 0 -1.41 3
12:00 415 J/kg -1.9 K 0 % 0 % 0 % 0 m²/s² 0 0 -0.52 80
13:00 64 J/kg 1.0 K 0 % 0 % 0 % 0 m²/s² 0 0 1.36 80
14:00 485 J/kg -2.5 K 0 % 0 % 0 % 0 m²/s² 0 0 -0.52 80
15:00 495 J/kg -2.3 K 0 % 0 % 0 % 0 m²/s² 0 0 -0.86 80
16:00 435 J/kg -2.1 K 0 % 0 % 0 % 0 m²/s² 0 0 -0.63 80
17:00 428 J/kg -2.0 K 0 % 0 % 0 % 0 m²/s² 0 0 -0.65 80
18:00 508 J/kg -2.5 K 0 % 0 % 0 % 0 m²/s² 0 0 -1.24 80
19:00 330 J/kg -1.3 K 0 % 0 % 0 % 0 m²/s² 0 0 -0.01 2
20:00 385 J/kg -1.5 K 0 % 0 % 0 % 0 m²/s² 0 0 -0.21 1
21:00 260 J/kg -0.7 K 0 % 0 % 0 % 0 m²/s² 0 0 3.05 1
22:00 98 J/kg 0.0 K 0 % 0 % 0 % 0 m²/s² 0 0 6.45 0
23:00 15 J/kg 1.9 K 0 % 0 % 0 % 0 m²/s² 0 0 8.35 0
 07:00     19:10    Daglengte: 12:10 Zaterdag 22 Sep
00:00 15 J/kg 2.8 K 0 % 0 % 0 % 0 m²/s² 0 0 8.86 1
01:00 29 J/kg 3.6 K 0 % 0 % 0 % 0 m²/s² 0 0 9.15 1
02:00 29 J/kg 4.9 K 0 % 0 % 0 % 0 m²/s² 0 0 10.27 3
03:00 26 J/kg 6.2 K 0 % 0 % 0 % 0 m²/s² 0 0 11.15 3
04:00 25 J/kg 8.0 K 0 % 0 % 0 % 0 m²/s² 0 0 12.83 3
05:00 15 J/kg 9.4 K 0 % 0 % 0 % 0 m²/s² 0 0 13.66 3
06:00 23 J/kg 10.3 K 0 % 0 % 0 % 0 m²/s² 0 0 14.23 3
07:00 18 J/kg 11.2 K 0 % 0 % 0 % 0 m²/s² 0 0 14.86 3
08:00 21 J/kg 11.5 K 0 % 0 % 0 % 0 m²/s² 0 0 15.16 3
09:00 22 J/kg 12.1 K 0 % 0 % 0 % 0 m²/s² 0 0 16.18 3
10:00 24 J/kg 12.8 K 0 % 0 % 0 % 0 m²/s² 0 0 17.21 3
11:00 13 J/kg 13.5 K 0 % 0 % 0 % 0 m²/s² 0 0 17.91 3
12:00 0 J/kg 14.2 K 0 % 0 % 0 % 0 m²/s² 0 0 18.61 3
13:00 4 J/kg 14.4 K 0 % 0 % 0 % 0 m²/s² 0 0 18.3 2
14:00 12 J/kg 14.1 K 0 % 0 % 0 % 0 m²/s² 0 0 15.99 1
15:00 22 J/kg 13.9 K 0 % 0 % 0 % 0 m²/s² 0 0 15.46 2
16:00 24 J/kg 13.7 K 0 % 0 % 0 % 0 m²/s² 0 0 14.75 3
17:00 14 J/kg 13.9 K 0 % 0 % 0 % 0 m²/s² 0 0 14.32 3
18:00 3 J/kg 14.1 K 0 % 0 % 0 % 0 m²/s² 0 0 14.4 2
19:00 0 J/kg 14.5 K 0 % 0 % 0 % 0 m²/s² 0 0 14.74 3
20:00 0 J/kg 15.0 K 0 % 0 % 0 % 0 m²/s² 0 0 15.24 3
21:00 2 J/kg 15.2 K 0 % 0 % 0 % 0 m²/s² 0 0 15.44 3
22:00 2 J/kg 15.2 K 0 % 0 % 0 % 0 m²/s² 0 0 15.41 3
23:00 18 J/kg 15.2 K 0 % 0 % 0 % 0 m²/s² 0 0 15.38 3
 07:01     19:07    Daglengte: 12:06 Zondag 23 Sep
00:00 34 J/kg 14.7 K 0 % 0 % 0 % 0 m²/s² 0 0 14.88 3
01:00 40 J/kg 14.3 K 0 % 0 % 0 % 0 m²/s² 0 0 14.48 3
02:00 23 J/kg 14.5 K 0 % 0 % 0 % 0 m²/s² 0 0 14.62 3
03:00 6 J/kg 14.6 K 0 % 0 % 0 % 0 m²/s² 0 0 14.72 3
04:00 9 J/kg 14.4 K 0 % 0 % 0 % 0 m²/s² 0 0 14.52 3
05:00 16 J/kg 14.3 K 0 % 0 % 0 % 0 m²/s² 0 0 14.42 3
06:00 5 J/kg 14.4 K 0 % 0 % 0 % 0 m²/s² 0 0 14.49 3
07:00 0 J/kg 14.6 K 0 % 0 % 0 % 0 m²/s² 0 0 14.72 3
08:00 1 J/kg 15.1 K 0 % 0 % 0 % 0 m²/s² 0 0 15.19 3
09:00 0 J/kg 15.6 K 0 % 0 % 0 % 0 m²/s² 0 0 15.63 3
10:00 23 J/kg 15.8 K 0 % 0 % 0 % 0 m²/s² 0 0 15.83 3
11:00 10 J/kg 14.7 K 0 % 0 % 0 % 0 m²/s² 0 0 14.82 3
12:00 9 J/kg 13.5 K 0 % 0 % 0 % 0 m²/s² 0 0 13.68 3
13:00 6 J/kg 12.7 K 0 % 0 % 0 % 0 m²/s² 0 0 12.91 3
14:00 22 J/kg 11.1 K 0 % 0 % 0 % 0 m²/s² 0 0 11.34 3
15:00 32 J/kg 9.2 K 0 % 0 % 0 % 0 m²/s² 0 0 9.47 2
16:00 32 J/kg 8.0 K 0 % 0 % 0 % 0 m²/s² 0 0 8.36 2
17:00 42 J/kg 7.0 K 0 % 0 % 0 % 0 m²/s² 0 0 7.39 1
18:00 60 J/kg 6.5 K 0 % 0 % 0 % 0 m²/s² 0 0 7.07 0
19:00 58 J/kg 7.0 K 0 % 0 % 0 % 0 m²/s² 0 0 8.26 0
20:00 31 J/kg 9.9 K 0 % 0 % 0 % 0 m²/s² 0 0 12.81
21:00 1 J/kg 14.0 K 0 % 0 % 0 % 0 m²/s² 0 0 17.69
Temp Baro Wind Neerslag
  EWN Forecast EWN WRFDA DWD ICON FMI HIRLAM MET Norway GFS
 06:56     19:15    Daglengte: 12:19 Vandaag
22:00 15.9° 991.4 hPa 5.9 m/s 19.6 mm 15.9° 991.2 hPa 5.7 m/s 9.2 mm 12.8° 992.9 hPa 1.7 m/s 24.2 mm 16.3° 991.6 hPa 7.4 m/s 0.0 mm 16.3° 990.3 hPa 6.9 m/s 6.4 mm 16.0° 992.0 hPa 6.4 m/s
 06:58     19:12    Daglengte: 12:14 Morgen
01:00 12.0° 991.0 hPa 11.2 m/s 6.0 mm 12.5° 988.3 hPa 9.5 m/s 29.5 mm 11.9° 991.0 hPa 6.0 m/s 2.3 mm 11.7° 991.6 hPa 16.8 m/s 0.0 mm 11.8° 991.5 hPa 11.1 m/s 3.7 mm 12.9° 991.5 hPa 6.7 m/s
04:00 10.0° 997.0 hPa 11.2 m/s 7.0 mm 9.9° 995.9 hPa 11.3 m/s 36.5 mm 9.9° 996.1 hPa 9.0 m/s 2.5 mm 11.0° 997.2 hPa 14.5 m/s 0.0 mm 9.8° 997.2 hPa 10.5 m/s 2.8 mm 9.6° 996.7 hPa 11.0 m/s
07:00 10.0° 1000.4 hPa 10.1 m/s 10.1 mm 10.9° 998.9 hPa 9.4 m/s 46.7 mm 10.2° 1000.3 hPa 9.1 m/s 3.0 mm 10.1° 999.4 hPa 11.5 m/s 0.0 mm 9.8° 1001.0 hPa 10.0 m/s 4.1 mm 10.2° 1001.7 hPa 8.7 m/s
10:00 10.9° 1003.1 hPa 9.3 m/s 10.3 mm 11.8° 1001.2 hPa 9.2 m/s 52.0 mm 10.3° 1004.0 hPa 9.1 m/s 1.9 mm 10.8° 1000.8 hPa 10.0 m/s 0.0 mm 11.1° 1003.4 hPa 8.6 m/s 1.8 mm 11.7° 1003.2 hPa 9.5 m/s
13:00 11.6° 1004.0 hPa 11.2 m/s 10.6 mm 11.3° 1003.1 hPa 11.4 m/s 55.4 mm 11.2° 1004.9 hPa 8.5 m/s 1.3 mm 12.6° 1002.0 hPa 15.1 m/s 0.0 mm 11.5° 1004.0 hPa 11.0 m/s 0.7 mm 11.2° 1004.1 hPa 9.7 m/s
16:00 12.6° 1007.4 hPa 12.1 m/s 11.5 mm 13.5° 1005.7 hPa 12.1 m/s 64.2 mm 12.9° 1008.4 hPa 8.9 m/s 1.8 mm 13.4° 1006.3 hPa 12.4 m/s 0.0 mm 12.2° 1007.4 hPa 12.5 m/s 3.2 mm 12.7° 1007.3 hPa 9.9 m/s
19:00 12.4° 1010.8 hPa 9.7 m/s 11.3 mm 12.8° 1009.0 hPa 9.4 m/s 67.5 mm 12.5° 1011.0 hPa 7.9 m/s 1.1 mm 13.0° 1009.7 hPa 10.4 m/s 0.0 mm 11.6° 1011.8 hPa 9.6 m/s 3.2 mm 12.2° 1011.1 hPa 8.3 m/s
22:00 12.3° 1013.6 hPa 8.1 m/s 0.0 mm 12.5° 1012.2 hPa 7.7 m/s 68.1 mm 12.7° 1013.5 hPa 7.3 m/s 0.1 mm 13.0° 1012.6 hPa 9.3 m/s 0.0 mm 12.0° 1014.3 hPa 7.7 m/s 0.0 mm 11.6° 1014.4 hPa 6.8 m/s
 07:00     19:10    Daglengte: 12:10 Zaterdag 22 Sep
01:00 12.0° 1015.4 hPa 7.9 m/s 0.0 mm 11.7° 1014.4 hPa 6.9 m/s 68.1 mm 12.2° 1015.4 hPa 7.5 m/s 0.0 mm 12.8° 1013.8 hPa 9.4 m/s 0.0 mm 12.0° 1016.1 hPa 7.6 m/s 0.0 mm 11.0° 1016.4 hPa 6.8 m/s
04:00 11.4° 1016.7 hPa 6.7 m/s 0.0 mm 11.1° 1015.4 hPa 5.4 m/s 68.1 mm 11.6° 1017.0 hPa 6.6 m/s 0.0 mm 12.4° 1014.9 hPa 7.8 m/s 0.0 mm 11.3° 1017.1 hPa 6.2 m/s 0.0 mm 10.5° 1017.8 hPa 6.0 m/s
07:00 10.9° 1017.5 hPa 5.6 m/s 0.0 mm 10.7° 1016.5 hPa 3.7 m/s 68.1 mm 11.3° 1017.6 hPa 5.9 m/s 0.0 mm 11.3° 1015.6 hPa 5.7 m/s 0.0 mm 10.9° 1018.3 hPa 4.9 m/s 0.0 mm 10.1° 1018.8 hPa 5.0 m/s
10:00 11.9° 1019.1 hPa 5.7 m/s 0.0 mm 12.2° 1017.5 hPa 4.8 m/s 68.1 mm 12.2° 1019.6 hPa 5.7 m/s 0.0 mm 13.1° 1016.9 hPa 7.5 m/s 0.0 mm 11.6° 1019.4 hPa 4.9 m/s 0.0 mm 11.6° 1019.3 hPa 4.3 m/s
13:00 12.7° 1019.6 hPa 5.0 m/s 0.0 mm 13.0° 1018.5 hPa 4.2 m/s 68.1 mm 13.4° 1020.0 hPa 5.3 m/s 0.0 mm 14.0° 1017.8 hPa 6.3 m/s 0.0 mm 12.2° 1019.8 hPa 3.1 m/s 0.0 mm 13.0° 1020.2 hPa 3.3 m/s
16:00 12.4° 1018.9 hPa 2.5 m/s 0.0 mm 14.3° 1017.3 hPa 2.1 m/s 68.1 mm 13.3° 1020.3 hPa 4.7 m/s 0.0 mm 11.9° 1018.6 hPa 1.3 m/s 0.3 mm 13.4° 1019.1 hPa 1.2 m/s
19:00 11.0° 1017.6 hPa 2.2 m/s 0.0 mm 13.4° 1016.4 hPa 2.1 m/s 68.1 mm 11.9° 1019.4 hPa 1.8 m/s 0.0 mm 10.7° 1017.0 hPa 2.5 m/s 0.6 mm 12.1° 1018.4 hPa 1.3 m/s
22:00 10.1° 1017.5 hPa 2.4 m/s 0.0 mm 11.3° 1017.0 hPa 2.5 m/s 69.5 mm 11.4° 1019.3 hPa 0.8 m/s 0.0 mm 10.0° 1016.2 hPa 4.0 m/s 0.0 mm 11.0° 1018.1 hPa 3.0 m/s
 07:01     19:07    Daglengte: 12:06 Zondag 23 Sep
01:00 9.6° 1016.3 hPa 2.2 m/s 0.0 mm 11.0° 1015.6 hPa 2.2 m/s 73.1 mm 10.4° 1018.2 hPa 1.1 m/s 0.0 mm 9.7° 1014.8 hPa 3.4 m/s 0.0 mm 10.2° 1016.0 hPa 2.8 m/s
04:00 9.5° 1014.8 hPa 2.5 m/s 0.0 mm 10.7° 1014.5 hPa 2.6 m/s 74.9 mm 9.8° 1016.9 hPa 0.9 m/s 0.0 mm 9.8° 1012.2 hPa 4.1 m/s 0.0 mm 10.1° 1014.2 hPa 3.7 m/s
07:00 9.2° 1013.2 hPa 3.8 m/s 0.0 mm 9.6° 1013.1 hPa 4.5 m/s 79.7 mm 9.5° 1015.7 hPa 1.6 m/s 0.0 mm 9.4° 1009.0 hPa 4.4 m/s 2.9 mm 9.5° 1012.0 hPa 4.9 m/s
10:00 9.8° 1012.6 hPa 4.9 m/s 15.4 mm 9.2° 1013.0 hPa 6.2 m/s 95.7 mm 10.6° 1017.5 hPa 2.5 m/s 0.0 mm 10.1° 1005.3 hPa 5.5 m/s 5.5 mm 8.4° 1011.6 hPa 5.8 m/s
13:00 10.4° 1012.2 hPa 6.2 m/s 30.2 mm 9.0° 1013.5 hPa 6.5 m/s 121.6 mm 12.2° 1019.7 hPa 5.1 m/s 0.0 mm 10.8° 1001.3 hPa 6.7 m/s 8.5 mm 8.4° 1012.0 hPa 5.3 m/s
16:00 9.6° 1014.6 hPa 8.5 m/s 54.1 mm 10.8° 1015.3 hPa 6.3 m/s 138.5 mm 12.4° 1022.6 hPa 5.6 m/s 0.0 mm 7.9° 1011.7 hPa 11.0 m/s 11.9 mm 9.2° 1016.6 hPa 6.3 m/s
19:00 10.0° 1020.6 hPa 5.9 m/s 16.6 mm 10.3° 1019.5 hPa 2.9 m/s 145.4 mm 11.5° 1025.8 hPa 4.8 m/s 0.0 mm 9.4° 1019.7 hPa 7.5 m/s 0.7 mm 10.1° 1021.4 hPa 4.4 m/s
22:00 9.6° 1024.5 hPa 5.6 m/s 145.7 mm 9.5° 1024.8 hPa 3.2 m/s 145.7 mm 9.6° 1024.4 hPa 6.0 m/s 9.1° 1026.7 hPa 3.0 m/s
 07:03     19:05    Daglengte: 12:02 Maandag 24 Sep
01:00 9.5° 1028.9 hPa 4.1 m/s 145.7 mm 7.7° 1027.8 hPa 1.9 m/s 145.7 mm 9.8° 1029.1 hPa 4.5 m/s 8.7° 1030.0 hPa 1.8 m/s
04:00 9.1° 1032.6 hPa 4.3 m/s 0.0 mm 9.1° 1032.6 hPa 4.5 m/s 8.7° 1032.6 hPa 2.0 m/s 0.0 mm
07:00 8.8° 1034.3 hPa 4.4 m/s 0.0 mm 8.8° 1034.3 hPa 4.5 m/s 8.6° 1034.8 hPa 2.8 m/s 0.0 mm
10:00 10.7° 1036.7 hPa 4.6 m/s 0.0 mm 10.6° 1036.7 hPa 4.7 m/s 11.4° 1037.1 hPa 3.6 m/s 0.0 mm
13:00 12.4° 1039.0 hPa 4.7 m/s 0.0 mm 12.4° 1039.0 hPa 4.8 m/s 12.9° 1038.5 hPa 4.0 m/s 0.0 mm
16:00 11.7° 1039.2 hPa 3.8 m/s 0.0 mm 11.6° 1039.2 hPa 3.8 m/s 12.8° 1038.6 hPa 4.1 m/s 0.0 mm
19:00 10.8° 1039.5 hPa 2.8 m/s 0.0 mm 10.8° 1039.5 hPa 2.8 m/s 10.8° 1039.3 hPa 2.8 m/s 0.0 mm
22:00 9.4° 1040.4 hPa 2.0 m/s 0.0 mm 9.4° 1040.3 hPa 2.1 m/s 9.5° 1041.3 hPa 1.0 m/s 0.0 mm
 07:05     19:03    Daglengte: 11:58 Dinsdag 25 Sep
01:00 8.0° 1041.2 hPa 1.4 m/s 0.0 mm 7.9° 1041.2 hPa 1.4 m/s 8.7° 1041.6 hPa 1.5 m/s 0.0 mm
04:00 6.5° 1041.2 hPa 1.6 m/s 0.0 mm 6.3° 1041.2 hPa 1.6 m/s 7.9° 1041.0 hPa 2.1 m/s 0.0 mm
07:00 5.0° 1041.3 hPa 1.9 m/s 0.0 mm 4.8° 1041.3 hPa 1.8 m/s 7.0° 1041.0 hPa 2.9 m/s 0.0 mm
10:00 9.3° 1041.2 hPa 2.9 m/s 0.0 mm 9.2° 1041.2 hPa 2.8 m/s 9.9° 1040.9 hPa 4.0 m/s 0.0 mm
13:00 13.7° 1041.0 hPa 3.8 m/s 0.0 mm 13.7° 1041.1 hPa 3.7 m/s 13.5° 1039.9 hPa 4.5 m/s 0.0 mm
16:00 12.6° 1039.6 hPa 2.3 m/s 0.0 mm 12.4° 1039.8 hPa 2.2 m/s 14.8° 1037.6 hPa 3.8 m/s 0.0 mm
19:00 11.2° 1038.2 hPa 0.8 m/s 0.0 mm 11.1° 1038.4 hPa 0.6 m/s 12.3° 1036.4 hPa 3.4 m/s 0.0 mm
22:00 9.1° 1038.1 hPa 1.6 m/s 0.0 mm 8.9° 1038.2 hPa 1.5 m/s 10.6° 1037.1 hPa 2.9 m/s 0.0 mm
 07:07     19:00    Daglengte: 11:53 Woensdag 26 Sep
01:00 7.0° 1037.8 hPa 2.5 m/s 0.0 mm 6.8° 1038.0 hPa 2.4 m/s 9.5° 1035.9 hPa 3.4 m/s 0.0 mm
04:00 6.6° 1037.1 hPa 2.5 m/s 0.0 mm 6.4° 1037.3 hPa 2.5 m/s 8.7° 1034.9 hPa 3.2 m/s 0.0 mm
07:00 6.2° 1036.5 hPa 2.6 m/s 0.0 mm 6.1° 1036.7 hPa 2.5 m/s 7.9° 1033.9 hPa 3.5 m/s 0.0 mm
10:00 10.5° 1036.3 hPa 2.0 m/s 0.0 mm 10.4° 1036.7 hPa 1.9 m/s 10.9° 1032.9 hPa 3.8 m/s 0.0 mm
13:00 14.8° 1036.2 hPa 1.4 m/s 0.0 mm 14.8° 1036.6 hPa 1.2 m/s 15.2° 1031.7 hPa 3.5 m/s 0.0 mm
16:00 14.1° 1035.0 hPa 0.9 m/s 0.0 mm 13.9° 1035.5 hPa 0.8 m/s 16.9° 1029.7 hPa 2.8 m/s 0.0 mm
19:00 13.0° 1034.0 hPa 0.5 m/s 0.0 mm 12.9° 1034.4 hPa 0.3 m/s 14.3° 1029.1 hPa 2.6 m/s 0.0 mm
22:00 10.8° 1033.6 hPa 1.1 m/s 0.0 mm 10.7° 1034.0 hPa 1.1 m/s 12.3° 1029.5 hPa 1.8 m/s 0.0 mm
 07:09     18:58    Daglengte: 11:49 Donderdag 27 Sep
01:00 8.7° 1033.2 hPa 1.8 m/s 0.0 mm 8.5° 1033.6 hPa 1.8 m/s 11.2° 1028.5 hPa 1.5 m/s 0.0 mm
04:00 9.5° 1032.0 hPa 2.6 m/s 0.0 mm 9.4° 1032.4 hPa 2.7 m/s 10.6° 1027.2 hPa 1.8 m/s 0.0 mm
07:00 10.3° 1030.9 hPa 3.5 m/s 0.0 mm 10.3° 1031.3 hPa 3.6 m/s 10.2° 1026.1 hPa 2.1 m/s 0.0 mm
10:00 12.3° 1030.9 hPa 5.4 m/s 0.0 mm 12.2° 1031.4 hPa 5.5 m/s 13.8° 1025.3 hPa 3.3 m/s 0.0 mm
13:00 14.4° 1031.0 hPa 7.5 m/s 0.0 mm 14.1° 1031.5 hPa 7.5 m/s 17.4° 1025.7 hPa 7.0 m/s 0.0 mm
16:00 13.3° 1031.3 hPa 6.9 m/s 0.2 mm 13.3° 1031.7 hPa 6.8 m/s 12.9° 1027.3 hPa 7.7 m/s 0.2 mm
19:00 12.5° 1031.7 hPa 6.1 m/s 0.2 mm 12.6° 1031.8 hPa 6.1 m/s 11.8° 1030.8 hPa 6.2 m/s 0.2 mm
 07:10     18:55    Daglengte: 11:45 Vrijdag 28 Sep
01:00 11.4° 1032.3 hPa 6.4 m/s 0.0 mm 11.5° 1032.1 hPa 6.6 m/s 10.1° 1034.9 hPa 3.7 m/s 0.0 mm
07:00 11.2° 1031.9 hPa 5.7 m/s 0.0 mm 11.4° 1031.5 hPa 6.0 m/s 9.5° 1036.1 hPa 3.0 m/s 0.0 mm
13:00 13.2° 1032.8 hPa 5.5 m/s 0.0 mm 13.2° 1032.5 hPa 5.8 m/s 13.6° 1035.7 hPa 2.6 m/s 0.0 mm
19:00 12.0° 1031.4 hPa 5.1 m/s 0.0 mm 12.0° 1031.3 hPa 5.2 m/s 11.5° 1032.6 hPa 4.0 m/s 0.0 mm
 07:12     18:53    Daglengte: 11:41 Zaterdag 29 Sep
01:00 10.9° 1030.5 hPa 3.8 m/s 0.0 mm 11.0° 1030.5 hPa 3.9 m/s 9.9° 1030.7 hPa 2.9 m/s 0.0 mm
07:00 10.5° 1028.2 hPa 5.1 m/s 0.0 mm 10.6° 1028.2 hPa 5.2 m/s 9.9° 1028.1 hPa 3.7 m/s 0.0 mm
13:00 12.5° 1027.5 hPa 7.0 m/s 0.0 mm 12.5° 1027.5 hPa 7.2 m/s 12.8° 1027.5 hPa 4.7 m/s 0.0 mm
19:00 13.0° 1025.6 hPa 6.8 m/s 0.0 mm 13.1° 1025.5 hPa 7.1 m/s 11.7° 1026.4 hPa 3.4 m/s 0.0 mm
 07:14     18:50    Daglengte: 11:36 Zondag 30 Sep
01:00 12.7° 1026.0 hPa 6.4 m/s 0.2 mm 12.7° 1025.9 hPa 6.7 m/s 12.8° 1026.6 hPa 3.6 m/s 0.2 mm
07:00 11.7° 1027.4 hPa 6.2 m/s 0.4 mm 11.7° 1027.5 hPa 6.3 m/s 12.1° 1025.9 hPa 4.9 m/s 0.4 mm
13:00 12.5° 1030.2 hPa 5.8 m/s 0.0 mm 12.5° 1030.6 hPa 5.8 m/s 12.9° 1025.7 hPa 5.8 m/s 0.0 mm
19:00 10.8° 1020.4 hPa 4.8 m/s 0.3 mm
 07:16     18:48    Daglengte: 11:32 Maandag 01 Okt
01:00 9.1° 1020.3 hPa 4.6 m/s 0.2 mm
07:00 8.6° 1019.9 hPa 4.9 m/s 0.7 mm
13:00 11.5° 1020.5 hPa 5.5 m/s 0.5 mm
19:00 9.5° 1020.7 hPa 4.0 m/s 0.6 mm
 07:17     18:46    Daglengte: 11:29 Dinsdag 02 Okt
01:00 7.9° 1020.9 hPa 3.4 m/s 0.3 mm
07:00 7.3° 1020.0 hPa 3.3 m/s 0.3 mm
13:00 11.7° 1019.1 hPa 5.1 m/s 0.8 mm
19:00 9.8° 1018.8 hPa 5.7 m/s 0.8 mm
 07:19     18:43    Daglengte: 11:24 Woensdag 03 Okt
01:00 8.1° 1019.7 hPa 4.9 m/s 0.3 mm
07:00 7.5° 1019.6 hPa 4.8 m/s 0.5 mm
13:00 11.1° 1019.4 hPa 6.2 m/s 0.5 mm
19:00 9.6° 1018.3 hPa 4.8 m/s 0.8 mm
 07:21     18:41    Daglengte: 11:20 Donderdag 04 Okt
01:00 8.2° 1018.6 hPa 4.2 m/s 0.7 mm
07:00 8.0° 1018.2 hPa 3.9 m/s 0.3 mm
13:00 11.6° 1018.3 hPa 4.8 m/s 0.4 mm
19:00 9.6° 1017.3 hPa 3.4 m/s 0.6 mm
 07:23     18:38    Daglengte: 11:15 Vrijdag 05 Okt
01:00 8.3° 1017.5 hPa 2.6 m/s 0.6 mm
07:00 8.1° 1016.5 hPa 2.2 m/s 0.9 mm
13:00 12.3° 1016.2 hPa 3.1 m/s 1.2 mm
19:00 10.0° 1016.0 hPa 2.9 m/s 0.6 mm
FMI Hirlam - 7.5 km EWN WRFDA - 12 km DWD ICON - 7 km GFS - 25 km Basiskaart






























































Updatetijd (Europe/Amsterdam) Resolutie Lengte Stap
FMI Hirlam 20:00, 02:00, 08:00, 14:00 7.5 km 49h 1h
EWN WRFDA 21:45, 03:45, 09:45, 15:45 12 km 73h 1h
DWD ICON 18:45, 00:45, 06:45, 12:45 7 km 75h 1h
GFS 21:30, 03:30, 09:30, 15:30 25 km 237h 3h
30+ mm
25-30 mm
20-25 mm
15-20 mm
10-15 mm
6-10 mm
4-6 mm
2-4 mm
1-2 mm
0.5-1 mm
0.2-0.5 mm
0.1-0.2 mm
30+ mm
25-30 mm
20-25 mm
15-20 mm
10-15 mm
6-10 mm
4-6 mm
2-4 mm
1-2 mm
0.5-1 mm
0.2-0.5 mm
0.1-0.2 mm
Sneeuwval
Natte sneeuw
Hagel
Vorst
30+ mm
25-30 mm
20-25 mm
15-20 mm
10-15 mm
6-10 mm
4-6 mm
2-4 mm
1-2 mm
0.5-1 mm
0.2-0.5 mm
0.1-0.2 mm
Sneeuwval
Natte sneeuw
Hagel
Vorst
Onweer
50 mm
40 mm
30 mm
26 mm
22 mm
18 mm
14 mm
10 mm
9 mm
8 mm
7 mm
6 mm
5 mm
4.5 mm
4 mm
3.5 mm
3 mm
2.5 mm
2 mm
1.5 mm
1 mm
0.8 mm
0.6 mm
0.4 mm
0.2 mm
0.05 mm
35°
30°
25°
20°
15°
10°
-5°
-10°
-15°
-20°
-25°
-30°
-35°
120> km/h
105 km/h
90 km/h
75 km/h
60 km/h
50 km/h
40 km/h
30 km/h
20 km/h
10 km/h
0 km/h
2600 J/kg
2400 J/kg
2200 J/kg
2000 J/kg
1800 J/kg
1600 J/kg
1400 J/kg
1200 J/kg
1000 J/kg
800 J/kg
600 J/kg
400 J/kg
200 J/kg
70 dBZ
65 dBZ
60 dBZ
55 dBZ
50 dBZ
45 dBZ
40 dBZ
35 dBZ
30 dBZ
25 dBZ
20 dBZ
15 dBZ
10 dBZ
5 dBZ
-1 K
-2 K
-3 K
-4 K
-5 K
-6 K
-7 K
-8 K
-9 K
950 m²/s²
900 m²/s²
850 m²/s²
800 m²/s²
750 m²/s²
700 m²/s²
650 m²/s²
600 m²/s²
550 m²/s²
500 m²/s²
450 m²/s²
400 m²/s²
350 m²/s²
300 m²/s²
250 m²/s²
200 m²/s²
150 m²/s²
100 m²/s²
46 m/s
44 m/s
42 m/s
40 m/s
38 m/s
36 m/s
34 m/s
32 m/s
30 m/s
28 m/s
26 m/s
24 m/s
22 m/s
20 m/s
16 m/s
12 m/s
8 m/s
4 m/s
30 m/s
28 m/s
26 m/s
24 m/s
22 m/s
20 m/s
18 m/s
16 m/s
14 m/s
12 m/s
10 m/s
8 m/s
6 m/s
4 m/s
2 m/s
3.0
2.8
2.6
2.4
2.2
2.0
1.8
1.6
1.4
1.2
1.0
0.8
0.6
0.4
0.2
15
14
13
12
11
10
9
8
7
6
5
4
3
2
1
90%
80%
70%
60%
50%
40%
30%
20%
10%
42
40
38
36
34
32
30
28
26
24
22
20
18
16
14
12
90+ cm
80-90 cm
70-80 cm
60-70 cm
50-60 cm
40-50 cm
30-40 cm
20-30 cm
10-20 cm
1-10 cm
Sneeuwval
Natte sneeuw
Regen
>120 mm
115 mm
110 mm
105 mm
100 mm
95 mm
90 mm
85 mm
80 mm
75 mm
70 mm
65 mm
60 mm
55 mm
50 mm
45 mm
45 mm
40 mm
35 mm
30 mm
25 mm
20 mm
15 mm
10 mm
5 mm
0.1 mm
960 hPa
880 hPa
800 hPa
720 hPa
640 hPa
560 hPa
584 gpdm
568 gpdm
552 gpdm
536 gpdm
520 gpdm
504 gpdm
488 gpdm
Extreem zwaar Noodweer Kans op onweer
15% 15% 5% 50% 15%

Dag




Kaart






35°
30°
25°
20°
15°
10°
-5°
-10°
-15°
-20°
-25°
-30°
-35°
120> km/h
105 km/h
90 km/h
75 km/h
60 km/h
50 km/h
40 km/h
30 km/h
20 km/h
10 km/h
0 km/h
Extreem zwaar Noodweer Kans op onweer
15% 15% 5% 50% 15%
>120 mm
115 mm
110 mm
105 mm
100 mm
95 mm
90 mm
85 mm
80 mm
75 mm
70 mm
65 mm
60 mm
55 mm
50 mm
45 mm
45 mm
40 mm
35 mm
30 mm
25 mm
20 mm
15 mm
10 mm
5 mm
0.1 mm
Onweer risico kaarten - De groene en gele kleur geeft de kans op onweer aan binnen 40 km van een punt. Oranje, rood en violet hebben hetzelfde niveau zoals je het ziet op estofex.org waaronder ook de kans op hagel en supercells.

dBZ - dBZ staat voor decibel ten opzichte van Z.

Cape - Convective available potential energy (CAPE), is de totale hoeveelheid energie die een luchtpakketje nodig heeft om zover mogelijk te stijgen in de atmosfeer.

K Index - K-Index wordt berekend door de Vertical Totals (VT) en het verschil tussen de 850 hPa temperatuur en de 700 hPa dauwpuntsdepressie (Tdd 700) bij elkaar op te tellen.

TT Index - Convectie index wordt gebruikt voor het voorspellen van zware buien of onweer.

WRF - The Weather Research and Forecasting (WRF) is een volgende generatie mesoscale numeriek weersvoorspelling systeem ontworpen om zowel de operationele planning als het atmosferisch onderzoek te dienen. WRF is a cooperatie tussen het National Center for Atmospheric Research (NCAR), National Centers for Environmental Prediction (NCEP), Forecast Systems Laboratory (FSL), Air Force Weather Agency (AFWA), Naval Research Laboratory, University of Oklahoma, en de Federal Aviation Administration (FAA). Deze software draait op onze server.

WRFDA - Een meer geavanceerde versie van WRF

Arome - Het 2.5 km Arome model. Verzorgd door het Noors Meteorologisch Instituut.

MET Norway - De proff-default 4km meteorological data is een beste keus selectie van meteorologische modellen gebruikt door met.no die zijn ge´nterpoleerd tot een gemeenschappelijke dataset. Verzorgd door het Noorse Meteorologisch Instituut.

SMHI - Het Hirlam model verzorgd door het Zweeds meteorologisch instituut.

FMI - Het Hirlam model verzorgd door het Fins meteorologisch instituut. Dekking alleen Finland.

GFS - Het Global Forecast Systeem (GFS) is een wereldwijd numerieke weersvoorspelling computermodel, gerund door NOAA.

GEM-GDPS - Het GEM-GDPS is a wereldwijd numeriek weersvoorspelling computermodel verzorgd door het Canadees Meteorologisch Centrum.

Credits/Info: Dank aan Stefan Gofferje van sääkeskus.fi voor enkele formules van GrADS. Info: Wikipedia.

Betrouwbaarheid van de verwachting

NB! 2015-03-29: Rebuilding the accuracy-test!

EWNACC
Day 1 Good forecasts

Dag 1 Tmax

Dag 2 Tmax

Geladen verwachtingen TOP 50

Totaal geladen verwachtingen:
Plaats Latitude Longitude Verwachtingen Plaats Latitude Longitude Verwachtingen